This demonstration page uses our WeatherBlox Daily Observations layout. Learn more.

Left ArrowRight Arrow

Hourly Observations for November 29, 2016

Temp ( °F °C ) Dew Point ( °F °C ) Humidity (%) Winds ( mph kmh ) Pressure ( in mb ) Visibility ( mi km ) Precip ( " mm )
12:53 am 00:53 Clear 45 7.2 27 -2.8 49 49 WSW 9 15 29.59 1002 10 16 0.00 0.00
1:53 am 01:53 Partly Cloudy 46 7.8 27 -2.8 47 47 WSW 9 15 29.58 1002 10 16 0.00 0.00
2:53 am 02:53 Cloudy 46 7.8 28 -2.2 50 50 SW 10 17 29.59 1002 10 16 0.00 0.00
3:53 am 03:53 Clear 43 6.1 28 -2.2 56 56 W 9 15 29.61 1003 10 16 0.00 0.00
4:53 am 04:53 Clear 41 5 28 -2.2 60 60 SSW 5 7 29.60 1002 10 16 0.00 0.00
5:53 am 05:53 Mostly Cloudy 41 5 28 -2.2 60 60 W 3 6 29.62 1003 10 16 0.00 0.00
6:53 am 06:53 Cloudy 42 5.6 29 -1.7 60 60 SW 7 11 29.63 1003 10 16 0.00 0.00
7:53 am 07:53 Cloudy 45 7.2 29 -1.7 54 54 N 9 15 29.65 1004 10 16 0.00 0.00
8:53 am 08:53 Cloudy 50 10 29 -1.7 44 44 Calm 29.66 1004 10 16 0.00 0.00
9:53 am 09:53 Cloudy 54 12.2 31 -0.6 42 42 WSW 12 19 29.67 1005 10 16 0.00 0.00
10:53 am 10:53 Cloudy 56 13.3 33 0.6 42 42 WNW 12 19 29.69 1005 10 16 0.00 0.00
11:53 am 11:53 Cloudy 58 14.4 32 0 38 38 NNW 10 17 29.70 1006 10 16 0.00 0.00
12:53 pm 12:53 Sunny 57 13.9 29 -1.7 34 34 NNW 8 13 29.70 1006 10 16 0.00 0.00
1:53 pm 13:53 Mostly Cloudy 57 13.9 29 -1.7 34 34 WNW 16 26 29.69 1005 10 16 0.00 0.00
2:53 pm 14:53 Cloudy 57 13.9 27 -2.8 32 32 WNW 17 28 29.70 1006 10 16 0.00 0.00
3:53 pm 15:53 Cloudy 56 13.3 28 -2.2 34 34 WNW 18 30 29.71 1006 10 16 0.00 0.00
4:53 pm 16:53 Cloudy 56 13.3 26 -3.3 32 32 W 15 24 29.73 1007 10 16 0.00 0.00
5:53 pm 17:53 Cloudy 55 12.8 21 -6.1 26 26 W 13 20 29.74 1007 10 16 0.00 0.00
6:53 pm 18:53 Cloudy 53 11.7 17 -8.3 24 24 NW 10 17 29.78 1009 10 16 0.00 0.00
7:53 pm 19:53 Cloudy 51 10.6 18 -7.8 27 27 NW 8 13 29.82 1010 10 16 0.00 0.00
8:53 pm 20:53 Cloudy 50 10 13 -10.6 22 22 NNW 7 11 29.84 1011 10 16 0.00 0.00
9:53 pm 21:53 Cloudy 48 9 14 -10 25 25 NNW 14 22 29.94 1014 10 16 0.00 0.00
10:53 pm 22:53 Mostly Clear 45 7.2 19 -7.2 35 35 NNW 10 17 29.91 1013 10 16 0.00 0.00
11:53 pm 23:53 Clear 41 5 21 -6.1 45 45 NW 6 9 29.94 1014 10 16 0.00 0.00

Powered by AerisWeather